Regional Weather Roundup
Issued by NWS

Home | Current Version | Previous Version | Text Only | Print | Product List | Glossary Off
Versions: 1 2 3 4 5 6 7 8 9 10 11 12 13 14 15 16 17 18 19 20 21 22 23 24 25 26 27 28 29 30 31 32 33 34 35 36 37 38 39 40 41 42 43 44 45 46 47 48 49 50

000
ASUS43 KLOT 240609
RWRIL

ILLINOIS REGIONAL WEATHER ROUNDUP
NATIONAL WEATHER SERVICE CHICAGO/ROMEOVILLE IL
100 AM CDT SAT JUN 24 2017

NOTE: "FAIR" INDICATES FEW OR NO CLOUDS BELOW 12,000 FEET WITH NO
SIGNIFICANT WEATHER AND/OR OBSTRUCTIONS TO VISIBILITY.

* THESE STATIONS ARE NOT UNDER NWS QUALITY CONTROL. THEY ALSO MAY NOT
  REPORT WEATHER SUCH AS PRECIPITATION OR FOG.

ILZ001-002-007-009-015-016-024-240700-
NORTHWEST ILLINOIS

CITY           SKY/WX    TMP DP  RH WIND       PRES   REMARKS
MOLINE         CLEAR     65  55  70 W9        29.96R
6HR MIN TEMP:  65; 6HR MAX TEMP:  75;

STERLING*      CLEAR     62  57  83 W10       29.94R
SAVANNA*       PTCLDY    64  56  73 NW13G18   29.93S
$$

ILZ003-004-008-010-011-017-018-240700-
NORTH CENTRAL ILLINOIS

CITY           SKY/WX    TMP DP  RH WIND       PRES   REMARKS
ROCKFORD       CLEAR     63  56  78 W10       29.90R
6HR MIN TEMP:  63; 6HR MAX TEMP:  75;

FREEPORT*      CLEAR     60  55  82 W9        29.93R
ROCHELLE*      CLEAR     61  56  85 W9        29.92R
DE KALB*       CLEAR     62  56  81 W13       29.90R
PERU*          CLEAR     61  56  82 W9        29.93R
$$

ILZ005-006-012>014-019>023-240700-
NORTHEAST ILLINOIS

CITY           SKY/WX    TMP DP  RH WIND       PRES   REMARKS
CHICAGO-OHARE  CLEAR     66  54  65 W9        29.86R
6HR MIN TEMP:  66; 6HR MAX TEMP:  79;

CHICAGO-MIDWAY CLEAR     68  54  60 NW10      29.87R
6HR MIN TEMP:  68; 6HR MAX TEMP:  80;

AURORA         CLEAR     60  57  89 W7        29.90R
6HR MIN TEMP:  60; 6HR MAX TEMP:  76;

LANSING*       CLEAR     65  53  63 W6        29.87S
JOLIET*        CLEAR     65  58  78 W5        29.89S
WAUKEGAN       CLEAR     63  55  75 CALM      29.84R
6HR MIN TEMP:  63; 6HR MAX TEMP:  77;

DUPAGE AIRPORT CLEAR     62  56  80 W7        29.88R
6HR MIN TEMP:  62; 6HR MAX TEMP:  77;

WHEELING       CLEAR     65  55  70 VRB5      29.87R
6HR MIN TEMP:  65; 6HR MAX TEMP:  78;

MORRIS*        CLEAR     62  56  82 W7        29.89S
ROMEOVILLE*    CLEAR     63  54  72 W7        29.89R
NORTHERLY ISL    N/A     68  53  58 W1          N/A
$$

LMZ740>746-240700-
SOUTHERN LAKE MICHIGAN

STATION/POSITION SKY/WX   TEMP    WIND        PRES    VSBY  WAVE
                          AIR SEA DIR/SP/G                  HT/PER
                          (F)     (DEG/KT/KT) (MB)    (MI)  (FT/S)
SOUTHERN BUOY              65 62  320/ 12/ 14 1008.8          2/ 3
WILMETTE HARBOR            66 64  270/ 10/ 12   N/A           1/ 3
HARRISON CRIB              69     290/ 13/ 16   N/A
BURNHAM HARBOR             68                   N/A
CALUMET HARBOR             68     280/  6/ 10 1010.8R
BURNS HARBOR               68     300/ 11/ 16 1011.2R
MICHIGAN CITY              68     280/ 17/ 18   N/A
MICHIGAN CITY 6N           68 68  310/ 14/ 19   N/A           3/ 3
ST. JOSEPH                 67 68  330/ 16/ 19 1010.2          2/ 3
$$

ILZ025>027-034>036-040-047-049-050-058-095>099-240700-
WEST-CENTRAL ILLINOIS

CITY           SKY/WX    TMP DP  RH WIND       PRES   REMARKS
QUINCY         CLEAR     63  56  78 W7        30.00R
GALESBURG*     CLEAR     61  56  81 W6        29.97S
MACOMB*        CLEAR     59  56  89 W7        30.00R
JACKSONVILLE*  CLEAR     63  55  74 W5        29.98R
PITTSFIELD*    CLEAR     64  57  77 NW5       30.01R
$$

ILZ028>032-037-038-041>044-048-051>054-059>061-240700-
CENTRAL ILLINOIS

CITY           SKY/WX    TMP DP  RH WIND       PRES   REMARKS
PONTIAC        CLEAR     63  60  90 W9        29.93R
BLOOMINGTON    CLEAR     65  55  70 NW14      29.94
DECATUR        PTCLDY    66  54  65 W7        29.95R
PEORIA         CLEAR     65  55  70 NW6       29.94S
6HR MIN TEMP:  65; 6HR MAX TEMP:  77;

LACON*         CLEAR     65  56  72 W9        29.93S
LINCOLN*       CLEAR     65  57  75 CALM      29.95R
SPRINGFIELD    CLEAR     63  58  83 W6        29.97R
6HR MIN TEMP:  63; 6HR MAX TEMP:  82;

TAYLORVILLE    CLEAR     63  56  77 W7        29.97R
6HR MIN TEMP:  63; 6HR MAX TEMP:  77;

$$

ILZ033-039-045-046-055>057-062-063-240700-
EAST-CENTRAL ILLINOIS

CITY           SKY/WX    TMP DP  RH WIND       PRES   REMARKS
CHAMPAIGN      PTCLDY    61  55  81 W6        29.93R
RANTOUL*       PTCLDY    63  59  87 W7        29.92S
MATTOON        PTCLDY    64  58  80 NW10      29.93R
PARIS*         PTCLDY    63  60  90 NW6       29.92S
$$

ILZ079-100>102-240700-
SOUTHWEST ILLINOIS

CITY           SKY/WX    TMP DP  RH WIND       PRES   REMARKS
ALTON          CLEAR     63  58  86 W3        29.98S
BELLEVILLE     CLEAR     68  55  63 NW8       29.98R
CAHOKIA*       PTCLDY    71  53  52 NW13      29.98R
SPARTA*        CLOUDY    70  56  61 N7        29.98R
$$

ILZ064>066-069>071-074>076-080>082-084>086-088>090-092>094-240700-
SOUTH-CENTRAL ILLINOIS

CITY           SKY/WX    TMP DP  RH WIND       PRES   REMARKS
CARBONDALE     PTCLDY    66  63  90 NW6       29.95R
6HR MIN TEMP:  65; 6HR MAX TEMP:  76;

CAIRO*         CLOUDY    70  62  77 NW5       29.94R
EFFINGHAM*     PTCLDY    67  59  76 W6        29.96S
MARION         PTCLDY    72  61  68 NW3       29.95R
MT. VERNON     CLOUDY    68  60  75 N3        29.95R
CENTRALIA*     PTCLDY    69  60  73 N6        29.95R
SALEM*         MOCLDY    67  60  76 NW5       29.95S
METROPOLIS*    MOCLDY    67  66  98 CALM      29.94R
$$

ILZ067-068-072-073-078-083-087-091-240700-
SOUTHEAST ILLINOIS

CITY           SKY/WX    TMP DP  RH WIND       PRES   REMARKS
LAWRENCEVILLE  PTCLDY    67  63  87 NW8       29.92R
FLORA*         PTCLDY    69  60  72 NW6       29.94S
FAIRFIELD*     PTCLDY    69  60  72 N5        29.93R
HARRISBURG*    MOCLDY    68  64  89 NW5       29.94R
ROBINSON*      MOCLDY    65  60  84 NW5       29.93R
CARMI*         PTCLDY    67  64  92 NW7       29.92R
$$

ABBREVIATIONS USED IN REMARKS
   TC - TEMPERATURE IN CELSIUS
  WCI - WIND CHILL INDEX
   HX - HEAT INDEX
  VSB - VISIBILITY
$$





USA.gov is the U.S. government's official web portal to all federal, state and local government web resources and services.